When you browse on this site, cookies collect data to enhance your experience and personalize the content and advertising you see.
Visit our Privacy Policy to learn more. By continuing to use the site, you agree to this use of cookies and data.
  • En España
  • Lista de países
  • Para 7 días
  • Temperatura del agua
  • Mapa Satelital
  • El tiempo en el mapa
  • Informadores
  • user-avatar
    Iniciar sesión

    Tiempo cada hora Kilkenny

    Hoy, 21 Enero, Lunes

    Tiempo Temperatura Precipitaciones Viento Presión Humedad
    00:00 +1°C° 0 mm 1 mps 764 mmHg 92%
    01:00 +1°C° 0 mm 1 mps 764 mmHg 92%
    02:00 +1°C° 0 mm 1 mps 763 mmHg 91%
    03:00 +1°C° 0 mm 1 mps 763 mmHg 91%
    04:00 +1°C° 0 mm 1 mps 763 mmHg 90%
    05:00 +1°C° 0 mm 1 mps 762 mmHg 89%
    06:00 +1°C° 0 mm 1 mps 762 mmHg 89%
    07:00 -1°C° 0 mm 2 mps 761 mmHg 88%
    08:00 +1°C° 0 mm 2 mps 760 mmHg 88%
    09:00 +1°C° 0 mm 2 mps 760 mmHg 88%
    10:00 0°C° 0 mm 4 mps 759 mmHg 85%
    11:00 +2°C° 0 mm 5 mps 758 mmHg 82%
    12:00 +4°C° 0 mm 6 mps 757 mmHg 79%
    13:00 +4°C° 0.3 mm 7 mps 755 mmHg 81%
    14:00 +4°C° 0.3 mm 7 mps 754 mmHg 83%
    15:00 +4°C° 0.3 mm 8 mps 752 mmHg 85%
    16:00 +4°C° 1.3 mm 8 mps 751 mmHg 86%
    17:00 +2°C° 1.3 mm 8 mps 750 mmHg 87%
    18:00 +1°C° 1.3 mm 8 mps 750 mmHg 87%
    19:00 0°C° 0.1 mm 7 mps 750 mmHg 87%
    20:00 -1°C° 0.1 mm 6 mps 750 mmHg 86%
    21:00 -1°C° 0.1 mm 4 mps 750 mmHg 86%
    22:00 -1°C° 0 mm 5 mps 750 mmHg 86%
    23:00 -1°C° 0 mm 5 mps 750 mmHg 87%

    Mañana, 22 Enero, Martes

    Tiempo Temperatura Precipitaciones Viento Presión Humedad
    00:00 -1°C° 0 mm 5 mps 750 mmHg 87%
    01:00 -1°C° 0 mm 4 mps 750 mmHg 88%
    02:00 -2°C° 0 mm 4 mps 749 mmHg 90%
    03:00 -1°C° 0 mm 3 mps 749 mmHg 91%
    04:00 -1°C° 0.4 mm 4 mps 748 mmHg 91%
    05:00 -1°C° 0.4 mm 4 mps 748 mmHg 92%
    06:00 0°C° 0.4 mm 4 mps 747 mmHg 92%
    07:00 -1°C° 0.1 mm 4 mps 747 mmHg 91%
    08:00 -1°C° 0.1 mm 4 mps 747 mmHg 89%
    09:00 -1°C° 0.1 mm 4 mps 747 mmHg 88%
    10:00 0°C° 0 mm 4 mps 747 mmHg 86%
    11:00 0°C° 0 mm 5 mps 747 mmHg 85%
    12:00 +1°C° 0 mm 5 mps 748 mmHg 83%
    13:00 +1°C° 0.1 mm 5 mps 747 mmHg 83%
    14:00 +1°C° 0.1 mm 4 mps 747 mmHg 84%
    15:00 +1°C° 0.1 mm 4 mps 747 mmHg 85%
    16:00 0°C° 0 mm 4 mps 747 mmHg 87%
    17:00 +1°C° 0 mm 3 mps 747 mmHg 89%
    18:00 0°C° 0 mm 3 mps 747 mmHg 91%
    19:00 0°C° 0 mm 3 mps 747 mmHg 91%
    20:00 0°C° 0 mm 3 mps 747 mmHg 92%
    21:00 0°C° 0 mm 3 mps 747 mmHg 92%
    22:00 -1°C° 0 mm 3 mps 748 mmHg 93%
    23:00 -1°C° 0 mm 3 mps 748 mmHg 93%

    Pasado mañana, 23 Enero, Miércoles

    Tiempo Temperatura Precipitaciones Viento Presión Humedad
    00:00 -2°C° 0 mm 3 mps 748 mmHg 93%
    01:00 -1°C° 0 mm 3 mps 748 mmHg 93%
    02:00 -1°C° 0 mm 3 mps 749 mmHg 92%
    03:00 0°C° 0 mm 3 mps 749 mmHg 91%
    04:00 0°C° 0 mm 3 mps 749 mmHg 92%
    05:00 +1°C° 0 mm 2 mps 749 mmHg 94%
    06:00 +1°C° 0 mm 2 mps 749 mmHg 95%
    07:00 +1°C° 0 mm 2 mps 749 mmHg 95%
    08:00 +1°C° 0 mm 2 mps 750 mmHg 95%
    09:00 +2°C° 0 mm 2 mps 750 mmHg 96%
    10:00 +3°C° 0 mm 2 mps 751 mmHg 94%
    11:00 +4°C° 0 mm 2 mps 751 mmHg 92%
    12:00 +5°C° 0 mm 2 mps 752 mmHg 90%
    13:00 +5°C° 0 mm 2 mps 752 mmHg 90%
    14:00 +5°C° 0 mm 2 mps 752 mmHg 91%
    15:00 +5°C° 0 mm 2 mps 752 mmHg 91%
    16:00 +4°C° 0 mm 2 mps 752 mmHg 93%
    17:00 +4°C° 0 mm 1 mps 753 mmHg 94%
    18:00 +4°C° 0 mm 1 mps 753 mmHg 96%
    19:00 +4°C° 0 mm 1 mps 753 mmHg 95%
    20:00 +4°C° 0 mm 1 mps 754 mmHg 95%
    21:00 +4°C° 0 mm 1 mps 754 mmHg 94%
    22:00 +5°C° 0 mm 1 mps 754 mmHg 95%
    23:00 +5°C° 0 mm 1 mps 754 mmHg 95%

    24 Enero, Jueves

    Tiempo Temperatura Precipitaciones Viento Presión Humedad
    00:00 +4°C° 0 mm 2 mps 754 mmHg 95%
    01:00 +4°C° 0.3 mm 2 mps 754 mmHg 96%
    02:00 +4°C° 0.3 mm 2 mps 754 mmHg 97%
    03:00 +5°C° 0.3 mm 2 mps 754 mmHg 98%
    04:00 +5°C° 0.2 mm 2 mps 754 mmHg 98%
    05:00 +6°C° 0.2 mm 2 mps 754 mmHg 98%
    06:00 +7°C° 0.2 mm 2 mps 754 mmHg 98%
    07:00 +7°C° 0.1 mm 3 mps 754 mmHg 98%
    08:00 +8°C° 0.1 mm 3 mps 754 mmHg 97%
    09:00 +8°C° 0.1 mm 4 mps 755 mmHg 97%
    10:00 +8°C° 0 mm 4 mps 755 mmHg 96%
    11:00 +8°C° 0 mm 5 mps 755 mmHg 95%
    12:00 +9°C° 0 mm 5 mps 756 mmHg 94%
    13:00 +8°C° 0 mm 5 mps 756 mmHg 93%
    14:00 +8°C° 0 mm 5 mps 756 mmHg 91%
    15:00 +8°C° 0 mm 5 mps 756 mmHg 90%
    16:00 +8°C° 0 mm 5 mps 756 mmHg 92%
    17:00 +7°C° 0 mm 5 mps 757 mmHg 93%
    18:00 +7°C° 0 mm 5 mps 757 mmHg 95%
    19:00 +7°C° 0 mm 5 mps 757 mmHg 95%
    20:00 +7°C° 0 mm 5 mps 758 mmHg 95%
    21:00 +6°C° 0 mm 4 mps 758 mmHg 95%
    22:00 +6°C° 0 mm 4 mps 758 mmHg 96%
    23:00 +6°C° 0 mm 4 mps 758 mmHg 96%

    25 Enero, Viernes

    Tiempo Temperatura Precipitaciones Viento Presión Humedad
    00:00 +7°C° 0 mm 3 mps 758 mmHg 97%
    01:00 +7°C° 0 mm 3 mps 758 mmHg 96%
    02:00 +7°C° 0 mm 3 mps 757 mmHg 96%
    03:00 +5°C° 0 mm 3 mps 757 mmHg 96%
    04:00 +5°C° 0 mm 3 mps 757 mmHg 96%
    05:00 +5°C° 0 mm 3 mps 757 mmHg 95%
    06:00 +5°C° 0 mm 4 mps 757 mmHg 95%
    07:00 +5°C° 0 mm 4 mps 757 mmHg 95%
    08:00 +5°C° 0 mm 4 mps 757 mmHg 95%
    09:00 +5°C° 0 mm 4 mps 757 mmHg 95%
    10:00 +6°C° 0 mm 5 mps 757 mmHg 92%
    11:00 +7°C° 0 mm 5 mps 757 mmHg 90%
    12:00 +9°C° 0 mm 6 mps 756 mmHg 87%
    13:00 +9°C° 0 mm 6 mps 756 mmHg 88%
    14:00 +9°C° 0 mm 5 mps 756 mmHg 90%
    15:00 +9°C° 0 mm 5 mps 755 mmHg 92%
    16:00 +9°C° 0.1 mm 5 mps 755 mmHg 93%
    17:00 +10°C° 0.1 mm 4 mps 755 mmHg 94%
    18:00 +8°C° 0.1 mm 4 mps 755 mmHg 96%
    19:00 +10°C° 0.3 mm 4 mps 754 mmHg 96%
    20:00 +10°C° 0.3 mm 4 mps 754 mmHg 95%
    21:00 +10°C° 0.3 mm 4 mps 754 mmHg 95%
    22:00 +10°C° 0 mm 4 mps 753 mmHg 95%
    23:00 +8°C° 0 mm 4 mps 752 mmHg 95%

    26 Enero, Sábado

    Tiempo Temperatura Precipitaciones Viento Presión Humedad
    00:00 +8°C° 0 mm 4 mps 751 mmHg 96%
    01:00 +8°C° 0.1 mm 5 mps 750 mmHg 95%
    02:00 +9°C° 0.1 mm 5 mps 749 mmHg 94%
    03:00 +9°C° 0.1 mm 6 mps 748 mmHg 94%
    04:00 +9°C° 0.9 mm 6 mps 746 mmHg 93%
    05:00 +9°C° 0.9 mm 7 mps 743 mmHg 92%
    06:00 +8°C° 0.9 mm 7 mps 741 mmHg 91%
    07:00 +6°C° 0.1 mm 7 mps 740 mmHg 90%
    08:00 +7°C° 0.1 mm 6 mps 738 mmHg 89%
    09:00 +6°C° 0.1 mm 5 mps 736 mmHg 87%
    10:00 +6°C° 0.1 mm 5 mps 736 mmHg 88%
    11:00 +5°C° 0.1 mm 6 mps 736 mmHg 88%
    12:00 +5°C° 0.1 mm 7 mps 736 mmHg 89%
    13:00 +5°C° 0.4 mm 8 mps 738 mmHg 89%
    14:00 +3°C° 0.4 mm 10 mps 739 mmHg 88%
    15:00 +3°C° 0.4 mm 12 mps 740 mmHg 88%
    16:00 +2°C° 0.2 mm 11 mps 742 mmHg 85%
    17:00 +1°C° 0.2 mm 10 mps 744 mmHg 82%
    18:00 0°C° 0.2 mm 9 mps 746 mmHg 80%
    19:00 0°C° 0 mm 8 mps 747 mmHg 80%
    20:00 -1°C° 0 mm 7 mps 748 mmHg 80%
    21:00 -1°C° 0 mm 7 mps 749 mmHg 81%
    22:00 -1°C° 0 mm 6 mps 749 mmHg 83%
    23:00 0°C° 0 mm 5 mps 749 mmHg 84%
    Mostrar más